CW8839 Weather Reports


time (UTC)temp
F
wind
direction
speed
knots
gust
knots
rain 1hr
in
rain 24hr
in
rain mn
in
humidity
%
barometer
mb
20260504050428 43 161 0.9 4.3 0.00 0.00 0.00 85 1014.9
20260504045931 43 162 0.0 0.0 0.00 0.00 0.00 85 1015.0
20260504045422 43 162 0.0 0.0 0.00 0.00 0.00 86 1014.9
20260504044932 43 162 0.0 0.0 0.00 0.00 0.00 84 1014.9
20260504044423 42 162 0.0 0.0 0.00 0.00 0.00 84 1014.9
20260504043936 42 162 0.0 0.0 0.00 0.00 0.00 85 1014.9
20260504043429 42 162 0.0 0.0 0.00 0.00 0.00 86 1014.9
20260504042918 42 162 0.0 0.0 0.00 0.00 0.00 85 1014.8
20260504042429 42 162 0.0 0.0 0.00 0.00 0.00 85 1014.9
20260504041923 41 162 0.0 0.0 0.00 0.00 0.00 86 1014.9
20260504041417 41 162 0.0 0.0 0.00 0.00 0.00 87 1014.9
20260504040929 41 162 0.0 0.0 0.00 0.00 0.00 87 1015.0
20260504040421 40 162 0.0 0.0 0.00 0.00 0.00 88 1015.0
20260504035921 40 162 0.0 0.0 0.00 0.00 0.00 88 1015.0
20260504035443 40 162 0.0 0.0 0.00 0.00 0.00 87 1015.0
20260504034931 40 162 0.0 0.0 0.00 0.00 0.00 86 1015.0
20260504034424 40 162 0.0 0.0 0.00 0.00 0.00 86 1014.9
20260504033954 40 162 0.0 0.9 0.00 0.00 0.00 86 1014.9
20260504033424 41 162 0.0 2.6 0.00 0.00 0.00 86 1014.9
20260504032934 41 162 0.9 2.6 0.00 0.00 0.00 85 1014.9
20260504032423 41 162 0.0 0.9 0.00 0.00 0.00 86 1014.9
20260504031956 41 162 0.0 0.9 0.00 0.00 0.00 86 1014.9
20260504031420 41 162 0.0 0.9 0.00 0.00 0.00 86 1014.9
20260504030930 41 162 0.0 0.9 0.00 0.00 0.00 87 1015.0
20260504030419 40 162 0.0 1.7 0.00 0.00 0.00 86 1015.0
20260504025923 40 162 0.0 1.7 0.00 0.00 0.00 87 1015.0
20260504025435 40 162 0.0 0.9 0.00 0.00 0.00 86 1015.1
20260504024925 40 162 0.0 0.9 0.00 0.00 0.00 86 1015.1
20260504024417 40 162 0.0 0.9 0.00 0.00 0.00 86 1015.1
20260504023926 39 162 0.0 0.9 0.00 0.00 0.00 86 1015.1
20260504023417 39 162 0.0 0.9 0.00 0.00 0.00 86 1015.1
20260504022923 39 162 0.0 0.9 0.00 0.00 0.00 85 1015.1
20260504022434 39 162 0.0 0.9 0.00 0.00 0.00 85 1015.1
20260504021927 39 162 0.9 0.9 0.00 0.00 0.00 85 1015.1
20260504021439 40 162 0.0 0.0 0.00 0.00 0.00 85 1015.2
20260504020932 40 162 0.0 0.0 0.00 0.00 0.00 84 1015.1
20260504020425 40 162 0.0 0.0 0.00 0.00 0.00 83 1015.0
20260504015933 40 162 0.0 0.9 0.00 0.00 0.00 84 1015.0
20260504015441 41 162 0.0 0.9 0.00 0.00 0.00 83 1015.1
20260504014952 41 162 0.0 0.9 0.00 0.00 0.00 82 1015.1
20260504014423 41 162 0.0 1.7 0.00 0.00 0.00 82 1015.1
20260504013935 41 162 0.0 1.7 0.00 0.00 0.00 81 1015.1
20260504013447 42 162 0.0 1.7 0.00 0.00 0.00 81 1015.0
20260504012937 42 162 0.0 1.7 0.00 0.00 0.00 80 1014.9
20260504012426 42 163 0.0 1.7 0.00 0.00 0.00 80 1014.9
20260504011933 43 171 0.9 3.5 0.00 0.00 0.00 79 1014.9
20260504011445 43 170 0.9 3.5 0.00 0.00 0.00 79 1014.9
20260504010935 44 172 0.0 1.7 0.00 0.00 0.00 77 1014.9
20260504010425 44 169 0.0 1.7 0.00 0.00 0.00 76 1014.9
20260504005932 44 167 0.9 2.6 0.00 0.00 0.00 77 1014.9
20260504005423 45 169 0.9 2.6 0.00 0.00 0.00 75 1014.8
20260504004935 45 171 0.9 2.6 0.00 0.00 0.00 77 1014.8
20260504004427 45 170 0.9 4.3 0.00 0.00 0.00 77 1014.8
20260504003916 46 161 1.7 4.3 0.00 0.00 0.00 78 1014.8
20260504003427 46 157 0.9 3.5 0.00 0.00 0.00 75 1014.8
20260504002918 46 117 0.9 3.5 0.00 0.00 0.00 72 1014.9
20260504002429 46 194 1.7 3.5 0.00 0.00 0.00 75 1014.8
20260504001920 47 161 0.9 2.6 0.00 0.00 0.00 73 1014.9
20260504001433 47 161 0.9 2.6 0.00 0.00 0.00 73 1014.8
20260504000926 48 161 1.7 4.3 0.00 0.00 0.00 73 1014.8
20260504000440 48 164 0.9 4.3 0.00 0.00 0.00 72 1014.8
20260503235917 49 176 1.7 4.3 0.00 0.00 0.00 70 1014.8
20260503235428 49 168 2.6 4.3 0.00 0.00 0.00 71 1014.8
20260503234921 50 157 1.7 4.3 0.00 0.00 0.00 68 1014.8
20260503234433 51 225 0.9 4.3 0.00 0.00 0.00 69 1014.8
20260503233923 52 221 1.7 7.0 0.00 0.00 0.00 66 1014.8
20260503233433 52 142 1.7 7.0 0.00 0.00 0.00 62 1014.8
20260503232924 54 201 1.7 7.0 0.00 0.00 0.00 52 1014.9
20260503232416 54 223 0.9 7.0 0.00 0.00 0.00 51 1014.9
20260503231923 54 242 2.6 7.0 0.00 0.00 0.00 52 1014.9
20260503231434 54 225 2.6 6.1 0.00 0.00 0.00 41 1014.9
20260503230925 54 225 2.6 6.1 0.00 0.00 0.00 57 1014.9
20260503230416 55 185 2.6 6.1 0.00 0.00 0.00 47 1014.9
20260503225934 55 181 2.6 6.1 0.00 0.00 0.00 46 1014.9
20260503225424 56 170 2.6 6.1 0.00 0.00 0.00 46 1014.9
20260503224934 56 219 1.7 4.3 0.00 0.00 0.00 41 1015.0
20260503224424 56 170 1.7 5.2 0.00 0.00 0.00 38 1014.9
20260503223931 56 192 2.6 7.0 0.00 0.00 0.00 38 1015.0
20260503223421 56 215 2.6 7.8 0.00 0.00 0.00 37 1015.1
20260503222933 56 249 0.9 7.8 0.00 0.00 0.00 44 1015.1
20260503222422 57 323 4.3 7.8 0.00 0.00 0.00 37 1015.1
20260503221934 57 189 3.5 7.0 0.00 0.00 0.00 40 1015.2
20260503221425 57 25 3.5 7.8 0.00 0.00 0.00 40 1015.2
20260503220916 57 150 3.5 8.7 0.00 0.00 0.00 36 1015.1
20260503220426 57 300 3.5 8.7 0.00 0.00 0.00 40 1015.2
20260503215929 57 257 2.6 14.8 0.00 0.00 0.00 37 1015.2
20260503215419 57 309 3.5 14.8 0.00 0.00 0.00 38 1015.2
20260503214929 58 275 4.3 7.8 0.00 0.00 0.00 37 1015.2
20260503214441 58 193 2.6 9.6 0.00 0.00 0.00 39 1015.2
20260503213929 58 245 3.5 7.0 0.00 0.00 0.00 39 1015.2
20260503213420 58 327 2.6 12.2 0.00 0.00 0.00 45 1015.1
20260503212932 58 236 4.3 12.2 0.00 0.00 0.00 39 1015.2
20260503212424 58 248 4.3 8.7 0.00 0.00 0.00 36 1015.2
20260503211930 58 320 6.1 8.7 0.00 0.00 0.00 37 1015.0
20260503211443 58 149 5.2 9.6 0.00 0.00 0.00 38 1015.0
20260503210933 57 213 5.2 9.6 0.00 0.00 0.00 38 1015.1
20260503210425 58 272 3.5 13.0 0.00 0.00 0.00 40 1015.1
20260503205933 58 260 7.0 13.0 0.00 0.00 0.00 38 1015.2
20260503205444 59 298 6.1 13.0 0.00 0.00 0.00 36 1015.3
20260503204916 59 290 4.3 9.6 0.00 0.00 0.00 41 1015.2
20260503204428 59 183 4.3 10.4 0.00 0.00 0.00 38 1015.2
20260503203955 58 236 3.5 10.4 0.00 0.00 0.00 35 1015.3
20260503203446 58 261 4.3 13.0 0.00 0.00 0.00 37 1015.5
20260503202934 58 168 7.8 13.0 0.00 0.00 0.00 37 1015.5
20260503202445 58 155 3.5 11.3 0.00 0.00 0.00 36 1015.8
20260503201933 57 327 2.6 15.6 0.00 0.00 0.00 38 1015.7
20260503201425 58 284 5.2 15.6 0.00 0.00 0.00 36 1015.9
20260503200917 57 284 5.2 11.3 0.00 0.00 0.00 38 1015.9
20260503200422 58 325 5.2 12.2 0.00 0.00 0.00 35 1015.9
20260503195929 59 227 5.2 13.9 0.00 0.00 0.00 40 1015.9
20260503195442 58 288 4.3 15.6 0.00 0.00 0.00 37 1016.1
20260503194932 59 223 8.7 15.6 0.00 0.00 0.00 44 1016.2
20260503194422 59 176 7.8 13.0 0.00 0.00 0.00 42 1016.2
20260503193933 58 289 2.6 13.9 0.00 0.00 0.00 36 1016.1
20260503193424 59 240 8.7 13.9 0.00 0.00 0.00 41 1016.4
20260503192931 59 271 7.0 15.6 0.00 0.00 0.00 35 1016.4
20260503192420 59 212 7.0 15.6 0.00 0.00 0.00 38 1016.3
20260503191930 57 149 6.1 12.2 0.00 0.00 0.00 38 1016.3
20260503191420 57 188 5.2 11.3 0.00 0.00 0.00 43 1016.6
20260503190930 57 173 5.2 13.0 0.00 0.00 0.00 40 1016.5
20260503190422 57 12 4.3 13.0 0.00 0.00 0.00 42 1016.6
20260503185942 55 321 2.6 9.6 0.00 0.00 0.00 42 1016.7
20260503185429 55 180 3.5 10.4 0.00 0.00 0.00 38 1016.9
20260503184934 56 295 3.5 14.8 0.00 0.00 0.00 38 1017.1
20260503184425 57 263 6.1 14.8 0.00 0.00 0.00 44 1017.1
20260503183917 57 259 7.0 12.2 0.00 0.00 0.00 39 1017.1
20260503183428 57 264 2.6 13.0 0.00 0.00 0.00 38 1017.0
20260503182918 56 277 3.5 13.0 0.00 0.00 0.00 38 1017.2
20260503182428 55 291 6.1 12.2 0.00 0.00 0.00 44 1017.2
20260503181919 57 237 7.0 11.3 0.00 0.00 0.00 37 1017.2
20260503181426 57 258 7.0 13.0 0.00 0.00 0.00 42 1017.2
20260503180918 57 254 7.0 13.9 0.00 0.00 0.00 36 1017.3
20260503180424 56 300 8.7 13.9 0.00 0.00 0.00 47 1017.3
20260503175924 55 291 4.3 13.9 0.00 0.00 0.00 46 1017.3
20260503175456 55 267 4.3 14.8 0.00 0.00 0.00 38 1017.2
20260503174925 56 268 6.1 14.8 0.00 0.00 0.00 42 1017.4
20260503174457 56 306 7.0 10.4 0.00 0.00 0.00 41 1017.3
20260503173926 56 322 5.2 13.0 0.00 0.00 0.00 39 1017.5
20260503173430 55 254 5.2 14.8 0.00 0.00 0.00 38 1017.5
20260503172922 56 217 6.1 14.8 0.00 0.00 0.00 45 1017.5
20260503172431 55 294 7.0 12.2 0.00 0.00 0.00 40 1017.6
20260503171924 55 184 4.3 13.0 0.00 0.00 0.00 38 1017.8
20260503171435 55 325 6.1 14.8 0.00 0.00 0.00 44 1017.8
20260503170947 55 316 7.8 14.8 0.00 0.00 0.00 45 1018.1
20260503170416 55 286 3.5 12.2 0.00 0.00 0.00 46 1018.0
20260503150936 50 150 4.3 12.2 0.00 0.00 0.00 46 1018.8
20260503150428 49 221 2.6 12.2 0.00 0.00 0.00 43 1018.9
20260503130952 44 285 4.3 7.8 0.00 0.00 0.00 64 1019.1
20260503130442 44 259 3.5 7.8 0.00 0.00 0.00 68 1019.1
20260503110422 29 281 0.0 0.0 0.00 0.00 0.00 91 1018.3
20260503090440 32 281 0.0 0.0 0.00 0.00 0.00 92 1017.6
20260503081420 31 282 0.0 0.0 0.00 0.00 0.00 91 1017.3
20260503080931 31 282 0.0 0.0 0.00 0.00 0.00 90 1017.3
20260503080423 31 282 0.0 0.0 0.00 0.00 0.00 90 1017.3
20260503072927 31 282 0.0 0.0 0.00 0.00 0.00 88 1017.2
20260503072433 31 283 0.0 0.0 0.00 0.00 0.00 88 1017.2
20260503071923 31 283 0.0 0.0 0.00 0.00 0.00 88 1017.2
20260503071433 31 283 0.0 0.0 0.00 0.00 0.00 88 1017.2
20260503070924 32 284 0.0 0.0 0.00 0.00 0.00 88 1017.2
20260503070418 32 284 0.0 0.0 0.00 0.00 0.00 88 1017.1